Year,Month,Day,Hour,Minute,Value (Times are PST for temperature in C)
2017,09,16,00,00,13.40
2017,09,16,00,01,13.40
2017,09,16,00,02,13.30
2017,09,16,00,03,13.30
2017,09,16,00,04,13.30
2017,09,16,00,05,13.30
2017,09,16,00,06,13.20
2017,09,16,00,07,13.20
2017,09,16,00,08,13.10
2017,09,16,00,09,13.10
2017,09,16,00,10,13.10
2017,09,16,00,11,13.00
2017,09,16,00,12,13.00
2017,09,16,00,13,13.00
2017,09,16,00,14,12.90
2017,09,16,00,15,12.90
2017,09,16,00,16,12.90
2017,09,16,00,17,12.90
2017,09,16,00,18,12.90
2017,09,16,00,19,12.90
2017,09,16,00,20,12.90
2017,09,16,00,21,12.90
2017,09,16,00,22,12.90
2017,09,16,00,23,12.90
2017,09,16,00,24,12.90
2017,09,16,00,25,12.90
2017,09,16,00,26,12.90
2017,09,16,00,27,12.90
2017,09,16,00,28,12.90
2017,09,16,00,29,12.90
2017,09,16,00,30,12.90
2017,09,16,00,31,12.90
2017,09,16,00,32,12.90
2017,09,16,00,33,13.00
2017,09,16,00,34,13.00
2017,09,16,00,35,13.00
2017,09,16,00,36,13.00
2017,09,16,00,37,13.00
2017,09,16,00,38,13.00
2017,09,16,00,39,13.00
2017,09,16,00,40,13.00
2017,09,16,00,41,13.00
2017,09,16,00,42,12.90
2017,09,16,00,43,12.90
2017,09,16,00,44,12.90
2017,09,16,00,45,12.90
2017,09,16,00,46,12.90
2017,09,16,00,47,12.90
2017,09,16,00,48,12.90
2017,09,16,00,49,13.00
2017,09,16,00,50,13.00
2017,09,16,00,51,13.10
2017,09,16,00,52,13.20
2017,09,16,00,53,13.20
2017,09,16,00,54,13.30
2017,09,16,00,55,13.30
2017,09,16,00,56,13.30
2017,09,16,00,57,13.30
2017,09,16,00,58,13.40
2017,09,16,00,59,13.40
2017,09,16,01,00,13.40
2017,09,16,01,01,13.40
2017,09,16,01,02,13.40
2017,09,16,01,03,13.40
2017,09,16,01,04,13.50
2017,09,16,01,05,13.50
2017,09,16,01,06,13.60
2017,09,16,01,07,13.60
2017,09,16,01,08,13.60
2017,09,16,01,09,13.70
2017,09,16,01,10,13.70
2017,09,16,01,11,13.70
2017,09,16,01,12,13.70
2017,09,16,01,13,13.70
2017,09,16,01,14,13.70
2017,09,16,01,15,13.70
2017,09,16,01,16,13.60
2017,09,16,01,17,13.60
2017,09,16,01,18,13.60
2017,09,16,01,19,13.60
2017,09,16,01,20,13.60
2017,09,16,01,21,13.60
2017,09,16,01,22,13.60
2017,09,16,01,23,13.60
2017,09,16,01,24,13.60
2017,09,16,01,25,13.60
2017,09,16,01,26,13.60
2017,09,16,01,27,13.60
2017,09,16,01,28,13.60
2017,09,16,01,29,13.60
2017,09,16,01,30,13.60
2017,09,16,01,31,13.60
2017,09,16,01,32,13.60
2017,09,16,01,33,13.60
2017,09,16,01,34,13.60
2017,09,16,01,35,13.60
2017,09,16,01,36,13.60
2017,09,16,01,37,13.60
2017,09,16,01,38,13.60
2017,09,16,01,39,13.60
2017,09,16,01,40,13.60
2017,09,16,01,41,13.60
2017,09,16,01,42,13.60
2017,09,16,01,43,13.50
2017,09,16,01,44,13.40
2017,09,16,01,45,13.20
2017,09,16,01,46,13.10
2017,09,16,01,47,12.90
2017,09,16,01,48,12.90
2017,09,16,01,49,12.80
2017,09,16,01,50,12.80
2017,09,16,01,51,12.80
2017,09,16,01,52,12.80
2017,09,16,01,53,12.90
2017,09,16,01,54,12.90
2017,09,16,01,55,13.00
2017,09,16,01,56,13.00
2017,09,16,01,57,13.00
2017,09,16,01,58,13.10
2017,09,16,01,59,13.10
2017,09,16,02,00,13.10
2017,09,16,02,01,13.10
2017,09,16,02,02,13.00
2017,09,16,02,03,13.00
2017,09,16,02,04,12.90
2017,09,16,02,05,12.90
2017,09,16,02,06,12.90
2017,09,16,02,07,12.90
2017,09,16,02,08,12.90
2017,09,16,02,09,12.80
2017,09,16,02,10,12.80
2017,09,16,02,11,12.80
2017,09,16,02,12,12.80
2017,09,16,02,13,12.80
2017,09,16,02,14,12.80
2017,09,16,02,15,12.80
2017,09,16,02,16,12.70
2017,09,16,02,17,12.70
2017,09,16,02,18,12.70
2017,09,16,02,19,12.70
2017,09,16,02,20,12.70
2017,09,16,02,21,12.70
2017,09,16,02,22,12.70
2017,09,16,02,23,12.60
2017,09,16,02,24,12.60
2017,09,16,02,25,12.60
2017,09,16,02,26,12.60
2017,09,16,02,27,12.60
2017,09,16,02,28,12.60
2017,09,16,02,29,12.60
2017,09,16,02,30,12.50
2017,09,16,02,31,12.50
2017,09,16,02,32,12.40
2017,09,16,02,33,12.40
2017,09,16,02,34,12.40
2017,09,16,02,35,12.40
2017,09,16,02,36,12.30
2017,09,16,02,37,12.30
2017,09,16,02,38,12.30
2017,09,16,02,39,12.30
2017,09,16,02,40,12.20
2017,09,16,02,41,12.20
2017,09,16,02,42,12.20
2017,09,16,02,43,12.20
2017,09,16,02,44,12.10
2017,09,16,02,45,12.10
2017,09,16,02,46,12.00
2017,09,16,02,47,12.00
2017,09,16,02,48,12.00
2017,09,16,02,49,12.00
2017,09,16,02,50,12.00
2017,09,16,02,51,12.00
2017,09,16,02,52,12.00
2017,09,16,02,53,12.00
2017,09,16,02,54,12.00
2017,09,16,02,55,12.00
2017,09,16,02,56,12.00
2017,09,16,07,44,10.30
2017,09,16,07,45,10.30
2017,09,16,07,46,10.30
2017,09,16,07,47,10.30
2017,09,16,07,48,10.40
2017,09,16,07,49,10.40
2017,09,16,07,50,10.40
2017,09,16,07,51,10.40
2017,09,16,07,52,10.40
2017,09,16,07,53,10.40
2017,09,16,07,54,10.50
2017,09,16,07,55,10.50
2017,09,16,07,56,10.50
2017,09,16,07,57,10.60
2017,09,16,07,58,10.60
2017,09,16,07,59,10.60
2017,09,16,08,00,10.60
2017,09,16,08,01,10.70
2017,09,16,08,02,10.70
2017,09,16,08,03,10.80
2017,09,16,08,04,10.80
2017,09,16,08,05,10.80
2017,09,16,08,06,10.90
2017,09,16,08,07,10.90
2017,09,16,08,08,10.90
2017,09,16,08,09,11.00
2017,09,16,08,10,11.00
2017,09,16,08,11,11.10
2017,09,16,08,12,11.20
2017,09,16,08,13,11.20
2017,09,16,08,14,11.30
2017,09,16,08,15,11.30
2017,09,16,08,16,11.40
2017,09,16,08,17,11.40
2017,09,16,08,18,11.40
2017,09,16,08,19,11.50
2017,09,16,08,20,11.50
2017,09,16,08,21,11.50
2017,09,16,08,22,11.60
2017,09,16,08,23,11.60
2017,09,16,08,24,11.60
2017,09,16,08,25,11.70
2017,09,16,08,26,11.70
2017,09,16,08,27,11.70
2017,09,16,08,28,11.70
2017,09,16,08,29,11.70
2017,09,16,08,30,11.80
2017,09,16,08,31,11.80
2017,09,16,08,32,11.80
2017,09,16,08,33,11.80
2017,09,16,08,34,11.80
2017,09,16,08,35,11.90
2017,09,16,08,36,11.90
2017,09,16,08,37,11.90
2017,09,16,08,38,11.90
2017,09,16,08,39,11.90
2017,09,16,08,40,12.00
2017,09,16,08,41,12.00
2017,09,16,08,42,12.10
2017,09,16,08,43,12.10
2017,09,16,08,44,12.10
2017,09,16,08,45,12.10
2017,09,16,08,46,12.10
2017,09,16,08,47,12.10
2017,09,16,08,48,12.20
2017,09,16,08,49,12.20
2017,09,16,08,50,12.20
2017,09,16,08,51,12.20
2017,09,16,08,52,12.30
2017,09,16,08,53,12.30
2017,09,16,08,54,12.30
2017,09,16,08,55,12.30
2017,09,16,08,56,12.30
2017,09,16,08,57,12.30
2017,09,16,08,58,12.30
2017,09,16,08,59,12.40
2017,09,16,09,00,12.40
2017,09,16,09,01,12.40
2017,09,16,09,02,12.40
2017,09,16,09,03,12.50
2017,09,16,09,04,12.50
2017,09,16,09,05,12.50
2017,09,16,09,06,12.50
2017,09,16,09,07,12.60
2017,09,16,09,08,12.60
2017,09,16,09,09,12.60
2017,09,16,09,10,12.60
2017,09,16,09,11,12.60
2017,09,16,09,12,12.70
2017,09,16,09,13,12.70
2017,09,16,09,14,12.80
2017,09,16,09,15,12.80
2017,09,16,09,16,12.80
2017,09,16,09,17,12.90
2017,09,16,09,18,12.90
2017,09,16,09,19,12.90
2017,09,16,09,20,13.00
2017,09,16,09,21,13.00
2017,09,16,09,22,13.00
2017,09,16,09,23,13.10
2017,09,16,09,24,13.10
2017,09,16,09,25,13.10
2017,09,16,09,26,13.10
2017,09,16,09,27,13.20
2017,09,16,09,28,13.20
2017,09,16,09,29,13.20
2017,09,16,09,30,13.20
2017,09,16,09,31,13.20
2017,09,16,09,32,13.30
2017,09,16,09,33,13.30
2017,09,16,09,34,13.30
2017,09,16,09,35,13.40
2017,09,16,09,36,13.40
2017,09,16,09,37,13.50
2017,09,16,09,38,13.50
2017,09,16,09,39,13.60
2017,09,16,09,40,13.60
2017,09,16,09,41,13.60
2017,09,16,09,42,13.70
2017,09,16,09,43,13.70
2017,09,16,09,44,13.80
2017,09,16,09,45,13.80
2017,09,16,09,46,13.90
2017,09,16,09,47,13.90
2017,09,16,09,48,13.90
2017,09,16,09,49,13.90
2017,09,16,09,50,13.90
2017,09,16,09,51,13.90
2017,09,16,09,52,13.90
2017,09,16,09,53,14.00
2017,09,16,09,54,14.00
2017,09,16,09,55,14.10
2017,09,16,09,56,14.10
2017,09,16,09,57,14.20
2017,09,16,09,58,14.20
2017,09,16,09,59,14.20
2017,09,16,10,00,14.30
2017,09,16,10,01,14.30
2017,09,16,10,02,14.20
2017,09,16,10,03,14.20
2017,09,16,10,04,14.20
2017,09,16,10,05,14.20
2017,09,16,10,06,14.20
2017,09,16,10,07,14.20
2017,09,16,10,08,14.30
2017,09,16,10,09,14.30
2017,09,16,10,10,14.30
2017,09,16,10,11,14.40
2017,09,16,10,12,14.40
2017,09,16,10,13,14.40
2017,09,16,10,14,14.50
2017,09,16,10,15,14.60
2017,09,16,10,16,14.70
2017,09,16,10,17,14.70
2017,09,16,10,18,14.80
2017,09,16,10,19,14.80
2017,09,16,10,20,14.90
2017,09,16,10,21,14.90
2017,09,16,10,22,15.00
2017,09,16,10,23,15.00
2017,09,16,10,24,15.00
2017,09,16,10,25,15.00
2017,09,16,10,26,15.00
2017,09,16,10,27,15.00
2017,09,16,10,28,15.10
2017,09,16,10,29,15.10
2017,09,16,10,30,15.20
2017,09,16,10,31,15.30
2017,09,16,10,32,15.40
2017,09,16,10,33,15.50
2017,09,16,10,34,15.50
2017,09,16,10,35,15.60
2017,09,16,10,36,15.60
2017,09,16,10,37,15.50
2017,09,16,10,38,15.50
2017,09,16,10,39,15.40
2017,09,16,10,40,15.40
2017,09,16,10,41,15.40
2017,09,16,10,42,15.40
2017,09,16,10,43,15.50
2017,09,16,10,44,15.60
2017,09,16,10,45,15.60
2017,09,16,10,46,15.60
2017,09,16,10,47,15.60
2017,09,16,10,48,15.60
2017,09,16,10,49,15.70
2017,09,16,10,50,15.70
2017,09,16,10,51,15.70
2017,09,16,10,52,15.80
2017,09,16,10,53,15.80
2017,09,16,10,54,15.80
2017,09,16,10,55,15.90
2017,09,16,10,56,15.90
2017,09,16,10,57,15.90
2017,09,16,10,58,15.90
2017,09,16,10,59,15.90
2017,09,16,11,00,16.00
2017,09,16,11,01,16.00
2017,09,16,11,02,16.10
2017,09,16,11,03,16.10
2017,09,16,11,04,16.10
2017,09,16,11,05,16.10
2017,09,16,11,06,16.10
2017,09,16,11,07,16.10
2017,09,16,11,08,16.10
2017,09,16,11,09,16.10
2017,09,16,11,10,16.10
2017,09,16,11,11,16.10
2017,09,16,11,12,16.10
2017,09,16,11,13,16.10
2017,09,16,11,14,16.20
2017,09,16,11,15,16.20
2017,09,16,11,16,16.20
2017,09,16,11,17,16.30
2017,09,16,11,18,16.30
2017,09,16,11,19,16.30
2017,09,16,11,20,16.30
2017,09,16,11,21,16.30
2017,09,16,11,22,16.30
2017,09,16,11,23,16.30
2017,09,16,11,24,16.30
2017,09,16,11,25,16.30
2017,09,16,11,26,16.30
2017,09,16,11,27,16.30
2017,09,16,11,28,16.30
2017,09,16,11,29,16.40
2017,09,16,11,30,16.40
2017,09,16,11,31,16.40
2017,09,16,11,32,16.40
2017,09,16,11,33,16.40
2017,09,16,11,34,16.50
2017,09,16,11,35,16.60
2017,09,16,11,36,16.70
2017,09,16,11,37,16.70
2017,09,16,11,38,16.80
2017,09,16,11,39,16.90
2017,09,16,11,40,16.90
2017,09,16,11,41,16.90
2017,09,16,11,42,17.00
2017,09,16,11,43,17.00
2017,09,16,11,44,17.00
2017,09,16,11,45,17.00
2017,09,16,11,46,17.00
2017,09,16,11,47,17.00
2017,09,16,11,48,17.00
2017,09,16,11,49,17.00
2017,09,16,11,50,17.10
2017,09,16,11,51,17.10
2017,09,16,11,52,17.10
2017,09,16,11,53,17.10
2017,09,16,11,54,17.20
2017,09,16,11,55,17.20
2017,09,16,11,56,17.20
2017,09,16,11,57,17.20
2017,09,16,11,58,17.30
2017,09,16,11,59,17.30
2017,09,16,12,00,17.30
2017,09,16,12,01,17.40
2017,09,16,12,02,17.40
2017,09,16,12,03,17.50
2017,09,16,12,04,17.50
2017,09,16,12,05,17.50
2017,09,16,12,06,17.40
2017,09,16,12,07,17.30
2017,09,16,12,08,17.20
2017,09,16,12,09,17.20
2017,09,16,12,10,17.20
2017,09,16,12,11,17.20
2017,09,16,12,12,17.20
2017,09,16,12,13,17.30
2017,09,16,12,14,17.30
2017,09,16,12,15,17.30
2017,09,16,12,16,17.20
2017,09,16,12,17,17.20
2017,09,16,12,18,17.20
2017,09,16,12,19,17.20
2017,09,16,12,20,17.20
2017,09,16,12,21,17.20
2017,09,16,12,22,17.20
2017,09,16,12,23,17.20
2017,09,16,12,24,17.30
2017,09,16,12,25,17.40
2017,09,16,12,26,17.50
2017,09,16,12,27,17.40
2017,09,16,12,28,17.40
2017,09,16,12,29,17.40
2017,09,16,12,30,17.40
2017,09,16,12,31,17.30
2017,09,16,12,32,17.30
2017,09,16,12,33,17.30
2017,09,16,12,34,17.30
2017,09,16,12,35,17.40
2017,09,16,12,36,17.40
2017,09,16,12,37,17.50
2017,09,16,12,38,17.50
2017,09,16,12,39,17.60
2017,09,16,12,40,17.60
2017,09,16,12,41,17.70
2017,09,16,12,42,17.70
2017,09,16,12,43,17.70
2017,09,16,12,44,17.70
2017,09,16,12,45,17.80
2017,09,16,12,46,17.90
2017,09,16,12,47,17.90
2017,09,16,12,48,17.90
2017,09,16,12,49,17.80
2017,09,16,12,50,17.80
2017,09,16,12,51,17.80
2017,09,16,12,52,17.80
2017,09,16,12,53,17.90
2017,09,16,12,54,17.90
2017,09,16,12,55,17.90
2017,09,16,12,56,17.90
2017,09,16,12,57,17.80
2017,09,16,12,58,17.70
2017,09,16,12,59,17.70
2017,09,16,13,00,17.60
2017,09,16,13,01,17.60
2017,09,16,13,02,17.60
2017,09,16,13,03,17.70
2017,09,16,13,04,17.70
2017,09,16,13,05,17.70
2017,09,16,13,06,17.70
2017,09,16,13,07,17.80
2017,09,16,13,08,17.80
2017,09,16,13,09,17.90
2017,09,16,13,10,17.90
2017,09,16,13,11,18.00
2017,09,16,13,12,18.00
2017,09,16,13,13,18.00
2017,09,16,13,14,18.00
2017,09,16,13,15,18.00
2017,09,16,13,16,18.00
2017,09,16,13,17,18.10
2017,09,16,13,18,18.10
2017,09,16,13,19,18.10
2017,09,16,13,20,18.20
2017,09,16,13,21,18.20
2017,09,16,13,22,18.20
2017,09,16,13,23,18.20
2017,09,16,13,24,18.20
2017,09,16,13,25,18.20
2017,09,16,13,26,18.20
2017,09,16,13,27,18.20
2017,09,16,13,28,18.20
2017,09,16,13,29,18.20
2017,09,16,13,30,18.30
2017,09,16,13,31,18.30
2017,09,16,13,32,18.30
2017,09,16,13,33,18.30
2017,09,16,13,34,18.30
2017,09,16,13,35,18.30
2017,09,16,13,36,18.40
2017,09,16,13,37,18.50
2017,09,16,13,38,18.60
2017,09,16,13,39,18.70
2017,09,16,13,40,18.70
2017,09,16,13,41,18.70
2017,09,16,13,42,18.60
2017,09,16,13,43,18.60
2017,09,16,13,44,18.60
2017,09,16,13,45,18.60
2017,09,16,13,46,18.60
2017,09,16,13,47,18.60
2017,09,16,13,48,18.70
2017,09,16,13,49,18.70
2017,09,16,13,50,18.80
2017,09,16,13,51,18.80
2017,09,16,13,52,18.80
2017,09,16,13,53,18.80
2017,09,16,13,54,18.80
2017,09,16,13,55,18.80
2017,09,16,13,56,18.80
2017,09,16,13,57,18.80
2017,09,16,13,58,18.90
2017,09,16,13,59,18.90
2017,09,16,14,00,19.00
2017,09,16,14,01,19.00
2017,09,16,14,02,19.10
2017,09,16,14,03,19.20
2017,09,16,14,04,19.20
2017,09,16,14,05,19.20
2017,09,16,14,06,19.20
2017,09,16,14,07,19.20
2017,09,16,14,08,19.20
2017,09,16,14,09,19.20
2017,09,16,14,10,19.20
2017,09,16,14,11,19.30
2017,09,16,14,12,19.30
2017,09,16,14,13,19.30
2017,09,16,14,14,19.20
2017,09,16,14,15,19.20
2017,09,16,14,16,19.20
2017,09,16,14,17,19.30
2017,09,16,14,18,19.30
2017,09,16,14,19,19.50
2017,09,16,14,20,19.60
2017,09,16,14,21,19.70
2017,09,16,14,22,19.70
2017,09,16,14,23,19.70
2017,09,16,14,24,19.70
2017,09,16,14,25,19.70
2017,09,16,14,26,19.70
2017,09,16,14,27,19.60
2017,09,16,14,28,19.60
2017,09,16,14,29,19.60
2017,09,16,14,30,19.70
2017,09,16,14,31,19.70
2017,09,16,14,32,19.80
2017,09,16,14,33,19.80
2017,09,16,14,34,19.80
2017,09,16,14,35,19.80
2017,09,16,14,36,19.80
2017,09,16,14,37,19.80
2017,09,16,14,38,19.80
2017,09,16,14,39,19.80
2017,09,16,14,40,19.80
2017,09,16,14,41,19.80
2017,09,16,14,42,19.80
2017,09,16,14,43,19.80
2017,09,16,14,44,19.80
2017,09,16,14,45,19.80
2017,09,16,14,46,19.80
2017,09,16,14,47,19.80
2017,09,16,14,48,19.80
2017,09,16,14,49,19.80
2017,09,16,14,50,19.70
2017,09,16,14,51,19.80
2017,09,16,14,52,19.80
2017,09,16,14,53,19.80
2017,09,16,14,54,19.90
2017,09,16,14,55,20.00
2017,09,16,14,56,20.00
2017,09,16,14,57,20.10
2017,09,16,14,58,20.10
2017,09,16,14,59,20.20
2017,09,16,15,00,20.20
2017,09,16,15,01,20.20
2017,09,16,15,02,20.20
2017,09,16,15,03,20.20
2017,09,16,15,04,20.20
2017,09,16,15,05,20.20
2017,09,16,15,06,20.20
2017,09,16,15,07,20.30
2017,09,16,15,08,20.30
2017,09,16,15,09,20.30
2017,09,16,15,10,20.30
2017,09,16,15,11,20.30
2017,09,16,15,12,20.30
2017,09,16,15,13,20.30
2017,09,16,15,14,20.30
2017,09,16,15,15,20.30
2017,09,16,15,16,20.30
2017,09,16,15,17,20.30
2017,09,16,15,18,20.30
2017,09,16,15,19,20.30
2017,09,16,15,20,20.30
2017,09,16,15,21,20.30
2017,09,16,15,22,20.40
2017,09,16,15,23,20.50
2017,09,16,15,24,20.50
2017,09,16,15,25,20.50
2017,09,16,15,26,20.50
2017,09,16,15,27,20.50
2017,09,16,15,28,20.50
2017,09,16,15,29,20.50
2017,09,16,15,30,20.60
2017,09,16,15,31,20.70
2017,09,16,15,32,20.70
2017,09,16,15,33,20.70
2017,09,16,15,34,20.70
2017,09,16,15,35,20.70
2017,09,16,15,36,20.60
2017,09,16,15,37,20.60
2017,09,16,15,38,20.60
2017,09,16,15,39,20.60
2017,09,16,15,40,20.70
2017,09,16,15,41,20.70
2017,09,16,15,42,20.80
2017,09,16,15,43,20.80
2017,09,16,15,44,20.90
2017,09,16,15,45,20.90
2017,09,16,15,46,21.00
2017,09,16,15,47,21.10
2017,09,16,15,48,21.10
2017,09,16,15,49,21.10
2017,09,16,15,50,21.10
2017,09,16,15,51,21.10
2017,09,16,15,52,21.10
2017,09,16,15,53,21.10
2017,09,16,15,54,21.10
2017,09,16,15,55,21.10
2017,09,16,15,56,21.10
2017,09,16,15,57,21.10
2017,09,16,15,58,21.10
2017,09,16,15,59,21.10
2017,09,16,16,00,21.20
2017,09,16,16,01,21.30
2017,09,16,16,02,21.40
2017,09,16,16,03,21.50
2017,09,16,16,04,21.60
2017,09,16,16,05,21.70
2017,09,16,16,06,21.70
2017,09,16,16,07,21.80
2017,09,16,16,08,21.80
2017,09,16,16,09,21.90
2017,09,16,16,10,21.90
2017,09,16,16,11,21.90
2017,09,16,16,12,21.90
2017,09,16,16,13,21.90
2017,09,16,16,14,21.90
2017,09,16,16,15,21.90
2017,09,16,16,16,21.80
2017,09,16,16,17,21.80
2017,09,16,16,18,21.70
2017,09,16,16,19,21.70
2017,09,16,16,20,21.70
2017,09,16,16,21,21.70
2017,09,16,16,22,21.70
2017,09,16,16,23,21.80
2017,09,16,16,24,21.80
2017,09,16,16,25,21.90
2017,09,16,16,26,21.90
2017,09,16,16,27,21.90
2017,09,16,16,28,21.90
2017,09,16,16,29,21.90
2017,09,16,16,30,21.80
2017,09,16,16,31,21.80
2017,09,16,16,32,21.80
2017,09,16,16,33,21.70
2017,09,16,16,34,21.70
2017,09,16,16,35,21.60
2017,09,16,16,36,21.50
2017,09,16,16,37,21.40
2017,09,16,16,38,21.30
2017,09,16,16,39,21.20
2017,09,16,16,40,21.10
2017,09,16,16,41,21.00
2017,09,16,16,42,21.00
2017,09,16,16,43,21.00
2017,09,16,16,44,21.10
2017,09,16,16,45,21.10
2017,09,16,16,46,21.10
2017,09,16,16,47,21.10
2017,09,16,16,48,21.10
2017,09,16,16,49,21.00
2017,09,16,16,50,21.00
2017,09,16,16,51,20.90
2017,09,16,16,52,20.90
2017,09,16,16,53,20.80
2017,09,16,16,54,20.80
2017,09,16,16,55,20.70
2017,09,16,16,56,20.70
2017,09,16,16,57,20.70
2017,09,16,16,58,20.70
2017,09,16,16,59,20.70
2017,09,16,17,00,20.70
2017,09,16,17,01,20.70
2017,09,16,17,02,20.70
2017,09,16,17,03,20.70
2017,09,16,17,04,20.70
2017,09,16,17,05,20.80
2017,09,16,17,06,20.80
2017,09,16,17,07,20.90
2017,09,16,17,08,21.00
2017,09,16,17,09,21.00
2017,09,16,17,10,21.10
2017,09,16,17,11,21.20
2017,09,16,17,12,21.30
2017,09,16,17,13,21.40
2017,09,16,17,14,21.40
2017,09,16,17,15,21.50
2017,09,16,17,16,21.60
2017,09,16,17,17,21.70
2017,09,16,17,18,21.70
2017,09,16,17,19,21.70
2017,09,16,17,20,21.70
2017,09,16,17,21,21.70
2017,09,16,17,22,21.70
2017,09,16,17,23,21.70
2017,09,16,17,24,21.70
2017,09,16,17,25,21.70
2017,09,16,17,26,21.70
2017,09,16,17,27,21.60
2017,09,16,17,28,21.60
2017,09,16,17,29,21.60
2017,09,16,17,30,21.60
2017,09,16,17,31,21.60
2017,09,16,17,32,21.60
2017,09,16,17,33,21.60
2017,09,16,17,34,21.60
2017,09,16,17,35,21.60
2017,09,16,17,36,21.60
2017,09,16,17,37,21.60
2017,09,16,17,38,21.60
2017,09,16,17,39,21.60
2017,09,16,17,40,21.60
2017,09,16,17,41,21.60
2017,09,16,17,42,21.60
2017,09,16,17,43,21.70
2017,09,16,17,44,21.70
2017,09,16,17,45,21.80
2017,09,16,17,46,21.80
2017,09,16,17,47,21.80
2017,09,16,17,48,21.90
2017,09,16,17,49,21.90
2017,09,16,17,50,22.00
2017,09,16,17,51,22.00
2017,09,16,17,52,22.00
2017,09,16,17,53,21.90
2017,09,16,17,54,21.90
2017,09,16,17,55,21.90
2017,09,16,17,56,21.90
2017,09,16,17,57,21.80
2017,09,16,17,58,21.70
2017,09,16,17,59,21.60
2017,09,16,18,00,21.40
2017,09,16,18,01,21.20
2017,09,16,18,02,21.00
2017,09,16,18,03,20.80
2017,09,16,18,04,20.60
2017,09,16,18,05,20.40
2017,09,16,18,06,20.20
2017,09,16,18,07,20.00
2017,09,16,18,08,19.80
2017,09,16,18,09,19.60
2017,09,16,18,10,19.40
2017,09,16,18,11,19.30
2017,09,16,18,12,19.10
2017,09,16,18,13,19.00
2017,09,16,18,14,18.90
2017,09,16,18,15,18.80
2017,09,16,18,16,18.80
2017,09,16,18,17,18.80
2017,09,16,18,18,18.80
2017,09,16,18,19,18.70
2017,09,16,18,20,18.70
2017,09,16,18,21,18.70
2017,09,16,18,22,18.70
2017,09,16,18,23,18.70
2017,09,16,18,24,18.70
2017,09,16,18,25,18.70
2017,09,16,18,26,18.70
2017,09,16,18,27,18.70
2017,09,16,18,28,18.80
2017,09,16,18,29,18.80
2017,09,16,18,30,18.80
2017,09,16,18,31,18.80
2017,09,16,18,32,18.80
2017,09,16,18,33,18.80
2017,09,16,18,34,18.80
2017,09,16,18,35,18.80
2017,09,16,18,36,18.80
2017,09,16,18,37,18.80
2017,09,16,18,38,18.80
2017,09,16,18,39,18.80
2017,09,16,18,40,18.80
2017,09,16,18,41,18.80
2017,09,16,18,42,18.80
2017,09,16,18,43,18.70
2017,09,16,18,44,18.70
2017,09,16,18,45,18.60
2017,09,16,18,46,18.60
2017,09,16,18,47,18.50
2017,09,16,18,48,18.50
2017,09,16,18,49,18.40
2017,09,16,18,50,18.40
2017,09,16,18,51,18.40
2017,09,16,18,52,18.30
2017,09,16,18,53,18.30
2017,09,16,18,54,18.30
2017,09,16,18,55,18.30
2017,09,16,18,56,18.30
2017,09,16,18,57,18.20
2017,09,16,18,58,18.20
2017,09,16,18,59,18.10
2017,09,16,19,00,18.10
2017,09,16,19,01,18.00
2017,09,16,19,02,17.90
2017,09,16,19,03,17.90
2017,09,16,19,04,17.80
2017,09,16,19,05,17.80
2017,09,16,19,06,17.70
2017,09,16,19,07,17.70
2017,09,16,19,08,17.60
2017,09,16,19,09,17.50
2017,09,16,19,10,17.50
2017,09,16,19,11,17.40
2017,09,16,19,12,17.30
2017,09,16,19,13,17.20
2017,09,16,19,14,17.10
2017,09,16,19,15,17.10
2017,09,16,19,16,17.00
2017,09,16,19,17,17.00
2017,09,16,19,18,16.90
2017,09,16,19,19,16.90
2017,09,16,19,20,16.80
2017,09,16,19,21,16.80
2017,09,16,19,22,16.80
2017,09,16,19,23,16.80
2017,09,16,19,24,16.70
2017,09,16,19,25,16.70
2017,09,16,19,26,16.70
2017,09,16,19,27,16.70
2017,09,16,19,28,16.70
2017,09,16,19,29,16.60
2017,09,16,19,30,16.60
2017,09,16,19,31,16.60
2017,09,16,19,32,16.60
2017,09,16,19,33,16.60
2017,09,16,19,34,16.60
2017,09,16,19,35,16.60
2017,09,16,19,36,16.60
2017,09,16,19,37,16.50
2017,09,16,19,38,16.50
2017,09,16,19,39,16.50
2017,09,16,19,40,16.50
2017,09,16,19,41,16.50
2017,09,16,19,42,16.50
2017,09,16,19,43,16.50
2017,09,16,19,44,16.50
2017,09,16,19,45,16.50
2017,09,16,19,46,16.50
2017,09,16,19,47,16.50
2017,09,16,19,48,16.40
2017,09,16,19,49,16.40
2017,09,16,19,50,16.40
2017,09,16,19,51,16.40
2017,09,16,19,52,16.40
2017,09,16,19,53,16.40
2017,09,16,19,54,16.40
2017,09,16,19,55,16.40
2017,09,16,19,56,16.40
2017,09,16,19,57,16.30
2017,09,16,19,58,16.30
2017,09,16,19,59,16.30
2017,09,16,20,00,16.30
2017,09,16,20,01,16.20
2017,09,16,20,02,16.20
2017,09,16,20,03,16.20
2017,09,16,20,04,16.10
2017,09,16,20,05,16.10
2017,09,16,20,06,16.10
2017,09,16,20,07,16.10
2017,09,16,20,08,16.10
2017,09,16,20,09,16.00
2017,09,16,20,10,16.00
2017,09,16,20,11,16.00
2017,09,16,20,12,16.00
2017,09,16,20,13,15.90
2017,09,16,20,14,15.90
2017,09,16,20,15,15.90
2017,09,16,20,16,15.90
2017,09,16,20,17,15.80
2017,09,16,20,18,15.80
2017,09,16,20,19,15.80
2017,09,16,20,20,15.70
2017,09,16,20,21,15.70
2017,09,16,20,22,15.70
2017,09,16,20,23,15.60
2017,09,16,20,24,15.60
2017,09,16,20,25,15.60
2017,09,16,20,26,15.50
2017,09,16,20,27,15.50
2017,09,16,20,28,15.50
2017,09,16,20,29,15.50
2017,09,16,20,30,15.40
2017,09,16,20,31,15.40
2017,09,16,20,32,15.40
2017,09,16,20,33,15.40
2017,09,16,20,34,15.40
2017,09,16,20,35,15.40
2017,09,16,20,36,15.40
2017,09,16,20,37,15.30
2017,09,16,20,38,15.30
2017,09,16,20,39,15.30
2017,09,16,20,40,15.30
2017,09,16,20,41,15.30
2017,09,16,20,42,15.30
2017,09,16,20,43,15.30
2017,09,16,20,44,15.30
2017,09,16,20,45,15.30
2017,09,16,20,46,15.30
2017,09,16,20,47,15.30
2017,09,16,20,48,15.30
2017,09,16,20,49,15.30
2017,09,16,20,50,15.30
2017,09,16,20,51,15.30
2017,09,16,20,52,15.30
2017,09,16,20,53,15.30
2017,09,16,20,54,15.20
2017,09,16,20,55,15.20
2017,09,16,20,56,15.20
2017,09,16,20,57,15.20
2017,09,16,20,58,15.20
2017,09,16,20,59,15.20
2017,09,16,21,00,15.10
2017,09,16,21,01,15.10
2017,09,16,21,02,15.10
2017,09,16,21,03,15.10
2017,09,16,21,04,15.10
2017,09,16,21,05,15.10
2017,09,16,21,06,15.00
2017,09,16,21,07,15.00
2017,09,16,21,08,14.90
2017,09,16,21,09,14.90
2017,09,16,21,10,14.90
2017,09,16,21,11,14.80
2017,09,16,21,12,14.80
2017,09,16,21,13,14.80
2017,09,16,21,14,14.80
2017,09,16,21,15,14.80
2017,09,16,21,16,14.70
2017,09,16,21,17,14.70
2017,09,16,21,18,14.70
2017,09,16,21,19,14.70
2017,09,16,21,20,14.60
2017,09,16,21,21,14.60
2017,09,16,21,22,14.60
2017,09,16,21,23,14.60
2017,09,16,21,24,14.50
2017,09,16,21,25,14.50
2017,09,16,21,26,14.50
2017,09,16,21,27,14.40
2017,09,16,21,28,14.40
2017,09,16,21,29,14.40
2017,09,16,21,30,14.40
2017,09,16,21,31,14.40
2017,09,16,21,32,14.30
2017,09,16,21,33,14.30
2017,09,16,21,34,14.30
2017,09,16,21,35,14.30
2017,09,16,21,36,14.30
2017,09,16,21,37,14.20
2017,09,16,21,38,14.20
2017,09,16,21,39,14.20
2017,09,16,21,40,14.20
2017,09,16,21,41,14.20
2017,09,16,21,42,14.20
2017,09,16,21,43,14.20
2017,09,16,21,44,14.20
2017,09,16,21,45,14.10
2017,09,16,21,46,14.10
2017,09,16,21,47,14.10
2017,09,16,21,48,14.10
2017,09,16,21,49,14.10
2017,09,16,21,50,14.10
2017,09,16,21,51,14.10
2017,09,16,21,52,14.10
2017,09,16,21,53,14.10
2017,09,16,21,54,14.00
2017,09,16,21,55,14.00
2017,09,16,21,56,14.00
2017,09,16,21,57,14.00
2017,09,16,21,58,14.00
2017,09,16,21,59,14.00
2017,09,16,22,00,14.00
2017,09,16,22,01,14.00
2017,09,16,22,02,14.00
2017,09,16,22,03,14.00
2017,09,16,22,04,14.00
2017,09,16,22,05,14.00
2017,09,16,22,06,14.00